カタログに戻る

STARLINK-5341

運用中通信VLEO
NORAD 55287·PAYLOAD·🇺🇸 United States

打ち上げ Jan 19, 2023 から Vandenberg Space Force Base

Loading…

次のパス (今後24時間)

TLE

最新Source: CelesTrak SupGP

元期: Sep 14, 2026, 21:31 UTC

1 55287C 23010U   26257.89701389  .00789290  00000+0  63607-1 0  2574
2 55287  70.0004 247.5381 0003182 266.4542 247.7602 14.99440897    17

AllMySatでSTARLINK-5341をリアルタイム追跡

Download on the App Store